RCF1625 UNKL-ZMCK

Flight info

Callsign RCF1625
Flight time 1h 38m
Altitude 35000
Route ATREG R497 LONKA A822 GUDMI R478 AMUTA/K0857S1070 Y618 BURKU B339 TATIG
Aircraft MD11/H-SDE1E2E3FGHIJ2J3J4J5M1RWXY/LB1D1

Departure

Time 2026-04-20 18:56
Airport Krasnoyarsk International Airport (UNKL)

Arrival

Time 2026-04-20 20:34
Airport Ulaanbaatar Chinggis Khaan International Airport (ZMCK)
Time Latitude Longitude Altitude Speed Heading
2026-04-20 18:11 56.18359 92.46865 944 ft 0 kts 202°
2026-04-20 18:46 56.18348 92.46857 945 ft 4 kts 202°
2026-04-20 18:46 56.18325 92.46842 945 ft 1 kts 187°
2026-04-20 18:46 56.18310 92.46842 945 ft 2 kts 179°
2026-04-20 18:46 56.18279 92.46841 945 ft 6 kts 182°
2026-04-20 18:47 56.18224 92.46813 945 ft 9 kts 201°
2026-04-20 18:47 56.18162 92.46770 945 ft 6 kts 189°
2026-04-20 18:47 56.18124 92.46806 945 ft 8 kts 128°
2026-04-20 18:47 56.18092 92.46911 945 ft 9 kts 115°
2026-04-20 18:48 56.18065 92.47021 945 ft 9 kts 111°
2026-04-20 18:48 56.18038 92.47137 945 ft 11 kts 112°
2026-04-20 18:48 56.18005 92.47279 945 ft 13 kts 112°
2026-04-20 18:48 56.17965 92.47446 945 ft 15 kts 112°
2026-04-20 18:49 56.17920 92.47636 945 ft 17 kts 113°
2026-04-20 18:49 56.17871 92.47840 945 ft 17 kts 112°
2026-04-20 18:49 56.17826 92.48038 945 ft 17 kts 112°
2026-04-20 18:49 56.17780 92.48231 945 ft 16 kts 112°
2026-04-20 18:50 56.17733 92.48424 945 ft 16 kts 112°
2026-04-20 18:50 56.17685 92.48623 945 ft 17 kts 113°
2026-04-20 18:50 56.17632 92.48846 945 ft 21 kts 112°
2026-04-20 18:50 56.17572 92.49095 945 ft 21 kts 112°
2026-04-20 18:51 56.17514 92.49341 945 ft 21 kts 112°
2026-04-20 18:51 56.17456 92.49583 945 ft 21 kts 112°
2026-04-20 18:51 56.17399 92.49827 945 ft 20 kts 112°
2026-04-20 18:51 56.17341 92.50061 945 ft 20 kts 114°
2026-04-20 18:52 56.17288 92.50292 945 ft 19 kts 112°
2026-04-20 18:52 56.17235 92.50513 945 ft 19 kts 113°
2026-04-20 18:52 56.17180 92.50744 945 ft 21 kts 113°
2026-04-20 18:52 56.17118 92.51002 945 ft 24 kts 112°
2026-04-20 18:53 56.17048 92.51298 945 ft 27 kts 112°
2026-04-20 18:53 56.16969 92.51627 945 ft 29 kts 112°
2026-04-20 18:53 56.16910 92.51872 945 ft 21 kts 117°
2026-04-20 18:53 56.16819 92.52036 945 ft 14 kts 153°
2026-04-20 18:54 56.16802 92.52048 945 ft 0 kts 163°
2026-04-20 18:54 56.16789 92.52054 945 ft 6 kts 166°
2026-04-20 18:54 56.16707 92.52073 945 ft 14 kts 178°
2026-04-20 18:55 56.16660 92.52029 945 ft 7 kts 260°
2026-04-20 18:55 56.16663 92.51971 945 ft 4 kts 281°
2026-04-20 18:55 56.16669 92.51943 945 ft 0 kts 290°
2026-04-20 18:56 56.16684 92.51876 945 ft 29 kts 292°
2026-04-20 18:56 56.16904 92.50956 945 ft 127 kts 292°
2026-04-20 18:56 56.17351 92.49086 1166 ft 181 kts 292°
2026-04-20 18:56 56.17805 92.47248 2404 ft 165 kts 292°
2026-04-20 18:57 56.18240 92.45392 3395 ft 165 kts 291°
2026-04-20 18:57 56.18676 92.43510 4340 ft 164 kts 291°
2026-04-20 18:57 56.19127 92.41572 4766 ft 178 kts 291°
2026-04-20 18:57 56.19637 92.39406 5101 ft 198 kts 291°
2026-04-20 18:58 56.20201 92.37035 5490 ft 213 kts 292°
2026-04-20 18:58 56.20784 92.34551 6018 ft 220 kts 289°
2026-04-20 18:58 56.20847 92.31770 6509 ft 237 kts 254°
2026-04-20 18:58 56.20019 92.29234 7360 ft 248 kts 226°
2026-04-20 18:59 56.18493 92.27643 8238 ft 266 kts 199°
2026-04-20 18:59 56.16607 92.27523 9266 ft 287 kts 173°
2026-04-20 18:59 56.14748 92.28979 10295 ft 308 kts 148°
2026-04-20 18:59 56.13180 92.31873 10932 ft 342 kts 124°
2026-04-20 19:00 56.12151 92.35866 11530 ft 369 kts 108°
2026-04-20 19:00 56.11453 92.40437 12049 ft 396 kts 102°
2026-04-20 19:00 56.10874 92.45414 12764 ft 416 kts 99°
2026-04-20 19:00 56.10182 92.50504 13705 ft 427 kts 111°
2026-04-20 19:01 56.08749 92.55112 14792 ft 430 kts 129°
2026-04-20 19:01 56.06777 92.59130 15731 ft 437 kts 136°
2026-04-20 19:01 56.04669 92.63155 16684 ft 448 kts 134°
2026-04-20 19:01 56.02648 92.67477 17624 ft 458 kts 130°
2026-04-20 19:02 56.00748 92.72083 18563 ft 467 kts 128°
2026-04-20 19:02 55.98884 92.76908 19446 ft 477 kts 126°
2026-04-20 19:02 55.97007 92.81839 20396 ft 484 kts 126°
2026-04-20 19:02 55.95087 92.86828 21346 ft 492 kts 126°
2026-04-20 19:03 55.93153 92.91823 22335 ft 497 kts 126°
2026-04-20 19:03 55.91151 92.96979 23248 ft 506 kts 126°
2026-04-20 19:03 55.89138 93.02148 24181 ft 513 kts 126°
2026-04-20 19:03 55.87130 93.07328 25097 ft 519 kts 126°
2026-04-20 19:04 55.85065 93.12645 25835 ft 528 kts 126°
2026-04-20 19:04 55.82950 93.18100 26570 ft 536 kts 125°
2026-04-20 19:04 55.80819 93.23635 27324 ft 544 kts 125°
2026-04-20 19:04 55.78680 93.29224 28007 ft 553 kts 124°
2026-04-20 19:05 55.76506 93.34876 28700 ft 561 kts 124°
2026-04-20 19:05 55.74336 93.40736 29433 ft 567 kts 121°
2026-04-20 19:05 55.72318 93.46748 30176 ft 571 kts 118°
2026-04-20 19:05 55.70397 93.52872 31098 ft 572 kts 117°
2026-04-20 19:06 55.68467 93.58997 31973 ft 573 kts 117°
2026-04-20 19:06 55.66484 93.65131 32887 ft 571 kts 118°
2026-04-20 19:06 55.64516 93.71148 33695 ft 569 kts 120°
2026-04-20 19:06 55.62512 93.77222 34423 ft 566 kts 120°
2026-04-20 19:07 55.60526 93.83212 34974 ft 564 kts 119°
2026-04-20 19:07 55.58564 93.89150 35042 ft 562 kts 119°
2026-04-20 19:07 55.54655 94.01038 35070 ft 556 kts 118°
2026-04-20 19:08 55.48879 94.18783 35108 ft 560 kts 118°
2026-04-20 19:09 55.45008 94.30675 35100 ft 562 kts 117°
2026-04-20 19:09 55.41131 94.42635 35116 ft 559 kts 117°
2026-04-20 19:10 55.37302 94.54520 35123 ft 559 kts 117°
2026-04-20 19:10 55.33478 94.66396 35131 ft 559 kts 117°
2026-04-20 19:11 55.29642 94.78400 35130 ft 560 kts 118°
2026-04-20 19:11 55.25785 94.90241 35139 ft 560 kts 116°
2026-04-20 19:12 55.22340 95.02439 35146 ft 559 kts 114°
2026-04-20 19:12 55.18883 95.14624 35136 ft 559 kts 114°
2026-04-20 19:13 55.15370 95.26709 35111 ft 558 kts 114°
2026-04-20 19:13 55.11868 95.38780 35136 ft 558 kts 114°
2026-04-20 19:14 55.08375 95.50892 35117 ft 558 kts 113°
2026-04-20 19:14 55.04939 95.62888 35117 ft 557 kts 114°
2026-04-20 19:15 55.01472 95.75008 35119 ft 557 kts 114°
2026-04-20 19:15 54.98017 95.87116 35106 ft 556 kts 114°
2026-04-20 19:16 54.94620 95.99123 35098 ft 556 kts 114°
2026-04-20 19:16 54.91230 96.11117 35106 ft 556 kts 113°
2026-04-20 19:17 54.87829 96.23232 35083 ft 555 kts 113°
2026-04-20 19:17 54.84346 96.35223 35082 ft 557 kts 115°
2026-04-20 19:18 54.80778 96.47072 35074 ft 556 kts 114°
2026-04-20 19:18 54.77255 96.59056 35068 ft 556 kts 114°
2026-04-20 19:19 54.73572 96.70798 35056 ft 556 kts 120°
2026-04-20 19:19 54.69353 96.82034 35047 ft 557 kts 123°
2026-04-20 19:20 54.64996 96.93054 35052 ft 557 kts 123°
2026-04-20 19:20 54.60715 97.04186 35055 ft 557 kts 122°
2026-04-20 19:21 54.56443 97.15316 35053 ft 556 kts 122°
2026-04-20 19:21 54.52202 97.26378 35069 ft 556 kts 122°
2026-04-20 19:22 54.47940 97.37513 35076 ft 556 kts 121°
2026-04-20 19:22 54.43720 97.48609 35081 ft 556 kts 121°
2026-04-20 19:23 54.39485 97.59734 35093 ft 556 kts 121°
2026-04-20 19:23 54.35261 97.70876 35095 ft 555 kts 122°
2026-04-20 19:24 54.31076 97.81944 35096 ft 555 kts 122°
2026-04-20 19:24 54.26892 97.93042 35086 ft 554 kts 121°
2026-04-20 19:25 54.22625 98.03951 35086 ft 555 kts 124°
2026-04-20 19:25 54.18191 98.14777 35057 ft 554 kts 124°
2026-04-20 19:26 54.13823 98.25519 35067 ft 554 kts 123°
2026-04-20 19:26 54.09457 98.36362 35053 ft 554 kts 122°
2026-04-20 19:27 54.05128 98.47162 35060 ft 554 kts 122°
2026-04-20 19:27 54.00774 98.58030 35058 ft 555 kts 122°
2026-04-20 19:28 53.96460 98.68827 35051 ft 554 kts 123°
2026-04-20 19:28 53.92118 98.79717 35060 ft 554 kts 123°
2026-04-20 19:29 53.87839 98.90468 35051 ft 554 kts 122°
2026-04-20 19:29 53.83524 99.01367 35052 ft 555 kts 122°
2026-04-20 19:30 53.79229 99.12171 35049 ft 554 kts 122°
2026-04-20 19:30 53.74835 99.22801 35034 ft 554 kts 124°
2026-04-20 19:31 53.70302 99.33349 35028 ft 554 kts 124°
2026-04-20 19:31 53.65831 99.43881 35021 ft 554 kts 124°
2026-04-20 19:32 53.61365 99.54491 35011 ft 553 kts 123°
2026-04-20 19:32 53.56944 99.65033 34987 ft 552 kts 124°
2026-04-20 19:33 53.52499 99.75628 35001 ft 552 kts 124°
2026-04-20 19:33 53.48099 99.86134 34999 ft 554 kts 123°
2026-04-20 19:34 53.43666 99.96780 34976 ft 553 kts 123°
2026-04-20 19:34 53.39255 100.07339 34968 ft 552 kts 123°
2026-04-20 19:35 53.34896 100.17870 34938 ft 552 kts 123°
2026-04-20 19:35 53.30523 100.28350 34931 ft 552 kts 123°
2026-04-20 19:36 53.25968 100.38721 34938 ft 552 kts 125°
2026-04-20 19:36 53.21369 100.48993 34994 ft 551 kts 124°
2026-04-20 19:37 53.16856 100.59199 35018 ft 549 kts 124°
2026-04-20 19:37 53.12345 100.69460 35008 ft 549 kts 125°
2026-04-20 19:38 53.07830 100.79740 34992 ft 547 kts 124°
2026-04-20 19:38 53.03356 100.89942 34960 ft 546 kts 125°
2026-04-20 19:39 52.98916 101.00091 34978 ft 545 kts 125°
2026-04-20 19:39 52.94477 101.10274 34994 ft 545 kts 124°
2026-04-20 19:40 52.90025 101.20486 35001 ft 545 kts 124°
2026-04-20 19:40 52.85597 101.30666 34997 ft 545 kts 124°
2026-04-20 19:41 52.81209 101.40780 34994 ft 543 kts 125°
2026-04-20 19:41 52.76606 101.50744 35007 ft 543 kts 127°
2026-04-20 19:42 52.72027 101.60546 35019 ft 542 kts 126°
2026-04-20 19:42 52.67471 101.70420 35034 ft 541 kts 127°
2026-04-20 19:43 52.63662 101.78708 35029 ft 540 kts 126°
2026-04-20 19:43 52.58395 101.90196 35045 ft 540 kts 126°
2026-04-20 19:44 52.53894 102.00030 35078 ft 539 kts 127°
2026-04-20 19:44 52.49378 102.09897 35075 ft 539 kts 126°
2026-04-20 19:45 52.44897 102.19739 35097 ft 539 kts 126°
2026-04-20 19:45 52.40414 102.29572 35100 ft 539 kts 126°
2026-04-20 19:46 52.35957 102.39399 35098 ft 539 kts 126°
2026-04-20 19:46 52.31501 102.49196 35098 ft 538 kts 126°
2026-04-20 19:47 52.26930 102.58798 35090 ft 537 kts 128°
2026-04-20 19:47 52.22306 102.68391 35073 ft 536 kts 128°
2026-04-20 19:48 52.17757 102.78006 35078 ft 536 kts 128°
2026-04-20 19:48 52.13171 102.87640 35078 ft 535 kts 128°
2026-04-20 19:49 52.08650 102.97195 35071 ft 535 kts 128°
2026-04-20 19:49 52.04129 103.06740 35068 ft 533 kts 128°
2026-04-20 19:50 51.99621 103.16303 35090 ft 533 kts 128°
2026-04-20 19:50 51.95294 103.26014 35100 ft 533 kts 123°
2026-04-20 19:51 51.91043 103.35810 35103 ft 534 kts 127°
2026-04-20 19:51 51.86460 103.45254 35097 ft 534 kts 128°
2026-04-20 19:52 51.81831 103.54668 35132 ft 533 kts 129°
2026-04-20 19:52 51.77236 103.64006 35125 ft 532 kts 128°
2026-04-20 19:53 51.72660 103.73377 35147 ft 532 kts 129°
2026-04-20 19:53 51.67849 103.82396 35158 ft 530 kts 140°
2026-04-20 19:54 51.61810 103.88996 35160 ft 521 kts 157°
2026-04-20 19:54 51.55244 103.93917 35150 ft 522 kts 159°
2026-04-20 19:55 51.48704 103.98982 35153 ft 522 kts 157°
2026-04-20 19:55 51.42248 104.04259 35121 ft 522 kts 156°
2026-04-20 19:56 51.35767 104.09544 35154 ft 522 kts 157°
2026-04-20 19:56 51.29273 104.14800 35140 ft 522 kts 157°
2026-04-20 19:57 51.22826 104.20058 35087 ft 521 kts 157°
2026-04-20 19:57 51.16405 104.25254 35099 ft 521 kts 157°
2026-04-20 19:58 51.09950 104.30527 35087 ft 521 kts 157°
2026-04-20 19:58 51.03471 104.35638 35108 ft 521 kts 158°
2026-04-20 19:59 50.96979 104.40836 35112 ft 521 kts 157°
2026-04-20 19:59 50.90545 104.45908 35104 ft 520 kts 158°
2026-04-20 20:00 50.84046 104.50976 35093 ft 520 kts 158°
2026-04-20 20:00 50.77574 104.56124 35090 ft 521 kts 158°
2026-04-20 20:01 50.71100 104.61220 35079 ft 522 kts 158°
2026-04-20 20:01 50.64585 104.66404 35076 ft 523 kts 158°
2026-04-20 20:02 50.58109 104.71491 35084 ft 522 kts 159°
2026-04-20 20:02 50.51558 104.76512 35104 ft 523 kts 159°
2026-04-20 20:03 50.45077 104.81606 35117 ft 524 kts 158°
2026-04-20 20:03 50.38557 104.86877 35121 ft 528 kts 154°
2026-04-20 20:04 50.32528 104.93397 35125 ft 533 kts 145°
2026-04-20 20:04 50.26747 105.00685 35124 ft 534 kts 145°
2026-04-20 20:05 50.20929 105.07801 35108 ft 534 kts 146°
2026-04-20 20:05 50.15050 105.14871 35081 ft 534 kts 146°
2026-04-20 20:06 50.09172 105.21938 35075 ft 536 kts 146°
2026-04-20 20:06 50.03244 105.29104 35070 ft 538 kts 146°
2026-04-20 20:07 49.97346 105.36247 35067 ft 539 kts 145°
2026-04-20 20:07 49.91462 105.43383 35075 ft 539 kts 145°
2026-04-20 20:08 49.85576 105.50542 35061 ft 538 kts 145°
2026-04-20 20:08 49.79677 105.57712 35057 ft 538 kts 145°
2026-04-20 20:09 49.73784 105.64882 35067 ft 538 kts 144°
2026-04-20 20:09 49.67910 105.72044 35063 ft 537 kts 146°
2026-04-20 20:10 49.62023 105.79015 35074 ft 536 kts 147°
2026-04-20 20:10 49.56049 105.85926 35080 ft 537 kts 147°
2026-04-20 20:11 49.50111 105.92851 35083 ft 537 kts 147°
2026-04-20 20:11 49.44150 105.99827 35084 ft 536 kts 147°
2026-04-20 20:12 49.38234 106.06740 35083 ft 537 kts 147°
2026-04-20 20:12 49.32308 106.13685 35083 ft 537 kts 147°
2026-04-20 20:13 49.23395 106.24138 35077 ft 537 kts 147°
2026-04-20 20:13 49.17483 106.31061 35068 ft 537 kts 147°
2026-04-20 20:14 49.11572 106.38019 35065 ft 538 kts 146°
2026-04-20 20:14 49.05625 106.44989 35052 ft 537 kts 147°
2026-04-20 20:15 48.99708 106.51949 34811 ft 541 kts 146°
2026-04-20 20:15 48.96729 106.55369 34083 ft 548 kts 147°
2026-04-20 20:15 48.93629 106.58797 33327 ft 551 kts 150°
2026-04-20 20:16 48.90340 106.61761 32546 ft 549 kts 158°
2026-04-20 20:16 48.86918 106.64088 32077 ft 535 kts 165°
2026-04-20 20:16 48.83378 106.65801 31145 ft 529 kts 173°
2026-04-20 20:16 48.79825 106.66747 30532 ft 514 kts 181°
2026-04-20 20:17 48.76264 106.66919 29567 ft 503 kts 192°
2026-04-20 20:17 48.72828 106.66309 28761 ft 493 kts 197°
2026-04-20 20:17 48.69426 106.65582 27779 ft 497 kts 194°
2026-04-20 20:17 48.65979 106.65247 26866 ft 501 kts 188°
2026-04-20 20:18 48.62481 106.65337 25850 ft 506 kts 184°
2026-04-20 20:18 48.58997 106.65665 24842 ft 507 kts 182°
2026-04-20 20:18 48.55477 106.66088 23895 ft 506 kts 181°
2026-04-20 20:18 48.51989 106.66505 23012 ft 502 kts 181°
2026-04-20 20:19 48.48559 106.66883 22182 ft 497 kts 181°
2026-04-20 20:19 48.45090 106.67242 21352 ft 492 kts 181°
2026-04-20 20:19 48.41689 106.67581 20547 ft 487 kts 182°
2026-04-20 20:19 48.38369 106.67909 19801 ft 482 kts 181°
2026-04-20 20:20 48.35026 106.68246 19237 ft 473 kts 181°
2026-04-20 20:20 48.31770 106.68584 18813 ft 469 kts 181°
2026-04-20 20:20 48.28521 106.68922 18391 ft 464 kts 181°
2026-04-20 20:20 48.25299 106.69267 18003 ft 462 kts 181°
2026-04-20 20:21 48.22125 106.69613 17799 ft 459 kts 181°
2026-04-20 20:21 48.18942 106.69952 17583 ft 458 kts 181°
2026-04-20 20:21 48.15781 106.70279 17407 ft 457 kts 181°
2026-04-20 20:21 48.12601 106.70615 17210 ft 456 kts 181°
2026-04-20 20:22 48.09461 106.70963 17012 ft 455 kts 180°
2026-04-20 20:22 48.06307 106.71309 16572 ft 455 kts 181°
2026-04-20 20:22 48.03152 106.71635 16214 ft 452 kts 181°
2026-04-20 20:22 48.00017 106.71955 15689 ft 447 kts 180°
2026-04-20 20:23 47.96928 106.72291 15030 ft 444 kts 180°
2026-04-20 20:23 47.93870 106.72633 14725 ft 440 kts 180°
2026-04-20 20:23 47.90832 106.73028 14585 ft 441 kts 176°
2026-04-20 20:23 47.87840 106.74237 14406 ft 449 kts 160°
2026-04-20 20:24 47.85098 106.76538 13797 ft 454 kts 145°
2026-04-20 20:24 47.82850 106.79760 13042 ft 454 kts 128°
2026-04-20 20:24 47.81193 106.83772 12298 ft 449 kts 115°
2026-04-20 20:24 47.79918 106.87947 11553 ft 444 kts 113°
2026-04-20 20:25 47.78613 106.91999 10789 ft 433 kts 116°
2026-04-20 20:25 47.77182 106.95850 10100 ft 414 kts 119°
2026-04-20 20:25 47.75736 106.99356 9914 ft 384 kts 121°
2026-04-20 20:25 47.74349 107.02573 9888 ft 356 kts 121°
2026-04-20 20:26 47.73052 107.05555 9875 ft 331 kts 121°
2026-04-20 20:26 47.71867 107.08315 9869 ft 310 kts 121°
2026-04-20 20:26 47.70752 107.10937 9913 ft 290 kts 120°
2026-04-20 20:26 47.69689 107.13457 9850 ft 282 kts 121°
2026-04-20 20:27 47.68666 107.15878 9851 ft 277 kts 121°
2026-04-20 20:27 47.67642 107.18256 9824 ft 267 kts 126°
2026-04-20 20:27 47.66255 107.19914 9810 ft 247 kts 162°
2026-04-20 20:27 47.64637 107.20288 9816 ft 229 kts 194°
2026-04-20 20:28 47.63226 107.19482 9381 ft 208 kts 230°
2026-04-20 20:28 47.62469 107.17839 9007 ft 185 kts 260°
2026-04-20 20:28 47.62183 107.16039 8613 ft 180 kts 266°
2026-04-20 20:28 47.61912 107.14237 8285 ft 179 kts 261°
2026-04-20 20:29 47.61511 107.12457 8014 ft 184 kts 255°
2026-04-20 20:29 47.61012 107.10696 7685 ft 188 kts 257°
2026-04-20 20:29 47.60710 107.08834 7635 ft 186 kts 268°
2026-04-20 20:29 47.60644 107.06948 7550 ft 182 kts 277°
2026-04-20 20:30 47.60772 107.05116 7314 ft 173 kts 283°
2026-04-20 20:30 47.60998 107.03416 7091 ft 161 kts 287°
2026-04-20 20:30 47.61261 107.01849 6876 ft 152 kts 289°
2026-04-20 20:30 47.61521 107.00367 6696 ft 149 kts 289°
2026-04-20 20:31 47.61781 106.98895 6504 ft 146 kts 289°
2026-04-20 20:31 47.62030 106.97437 6286 ft 143 kts 289°
2026-04-20 20:31 47.62271 106.96014 6107 ft 143 kts 288°
2026-04-20 20:31 47.62520 106.94579 5914 ft 144 kts 289°
2026-04-20 20:32 47.62759 106.93145 5716 ft 144 kts 288°
2026-04-20 20:32 47.62977 106.91684 5500 ft 145 kts 286°
2026-04-20 20:32 47.63188 106.90231 5292 ft 145 kts 287°
2026-04-20 20:32 47.63446 106.88803 5125 ft 144 kts 290°
2026-04-20 20:33 47.63718 106.87350 4936 ft 146 kts 289°
2026-04-20 20:33 47.63982 106.85899 4721 ft 147 kts 288°
2026-04-20 20:33 47.64239 106.84452 4521 ft 147 kts 288°
2026-04-20 20:33 47.64498 106.83074 4480 ft 126 kts 286°
2026-04-20 20:34 47.64702 106.81960 4479 ft 95 kts 285°
2026-04-20 20:34 47.64846 106.81139 4476 ft 76 kts 283°
2026-04-20 20:34 47.64973 106.80409 4484 ft 70 kts 285°
2026-04-20 20:34 47.65054 106.79977 4491 ft 29 kts 283°
2026-04-20 20:35 47.65068 106.79894 4491 ft 0 kts 284°
2026-04-20 20:35 47.65073 106.79856 4491 ft 8 kts 281°
2026-04-20 20:35 47.65095 106.79752 4490 ft 11 kts 306°
2026-04-20 20:35 47.65146 106.79707 4493 ft 5 kts
2026-04-20 20:36 47.65177 106.79714 4494 ft 3 kts 18°
2026-04-20 20:36 47.65208 106.79739 4497 ft 8 kts 34°
2026-04-20 20:36 47.65236 106.79816 4501 ft 11 kts 78°
2026-04-20 20:36 47.65231 106.79940 4502 ft 12 kts 103°
2026-04-20 20:37 47.65208 106.80070 4502 ft 13 kts 105°
2026-04-20 20:37 47.65181 106.80222 4501 ft 17 kts 105°
2026-04-20 20:37 47.65147 106.80419 4497 ft 22 kts 104°
2026-04-20 20:37 47.65107 106.80660 4494 ft 26 kts 105°
2026-04-20 20:38 47.65057 106.80930 4489 ft 26 kts 104°
2026-04-20 20:38 47.65007 106.81209 4488 ft 29 kts 105°
2026-04-20 20:38 47.64966 106.81437 4490 ft 15 kts 99°
2026-04-20 20:38 47.64995 106.81568 4493 ft 12 kts 58°
2026-04-20 20:39 47.65013 106.81674 4496 ft 9 kts 98°
2026-04-20 20:39 47.64998 106.81776 4496 ft 10 kts 104°
2026-04-20 20:39 47.64977 106.81892 4497 ft 12 kts 105°
2026-04-20 20:39 47.64953 106.82024 4499 ft 14 kts 104°
2026-04-20 20:40 47.64927 106.82172 4501 ft 12 kts 105°
2026-04-20 20:40 47.64906 106.82290 4502 ft 11 kts 105°
2026-04-20 20:40 47.64885 106.82409 4503 ft 8 kts 104°
2026-04-20 20:40 47.64878 106.82451 4502 ft 1 kts 93°
2026-04-20 20:41 47.64884 106.82469 4503 ft 2 kts 51°
2026-04-20 20:41 47.64894 106.82482 4503 ft 0 kts 35°
2026-04-20 20:41 47.64898 106.82486 4504 ft 2 kts 31°
2026-04-20 20:41 47.64914 106.82496 4505 ft 1 kts 20°
2026-04-20 20:42 47.64926 106.82502 4507 ft 2 kts 19°
2026-04-20 20:42 47.64937 106.82507 4508 ft 0 kts 14°